Weather past 2 weeks in Mamoutzou, Mayotte

Now
86 °F

Broken clouds.


Feels Like: 97 °F
Forecast: 74 / 84 °F
Wind: 9 mph from East

Location: Dzaoudzi / Pamanzi Mayotte


UV Index: 5 (Moderate)

Visibility: N/A


Pressure: 29.89 "Hg

Humidity: 75%

Dew point: 77 °F

Location of MamoutzouLocation

Historic Weather in Mamoutzou

°F

Mamoutzou temperature yesterday

Maximum temperature yesterday: 88 °F (at 10:00 AM)
Minimum temperature yesterday: 81 °F (at 12:00 AM)
Average temperature yesterday: 83 °F

Past Weeks' High & Low Weather Summary

 TemperatureHumidityPressure
High90 °F (Apr 7, 2:00 PM)94% (Apr 5, 2:30 AM)30.01 "Hg (Apr 5, 2:30 AM)
Low75 °F (Apr 5, 2:00 AM)55% (Apr 4, 1:30 PM)29.83 "Hg (Apr 5, 3:00 PM)
Average83 °F74%29.90 "Hg
* Reported Apr 3 1:00 PM — Apr 18 1:30 PM, Mamoutzou, Weather by CustomWeather, © 2014

Note: Actual official high and low records may vary slightly from our data, if they occured in-between our weather recording intervals... More about our weather records

Advertising

Historic Weather Conditions — Data for Previous 24 hours

 ConditionsComfort  
Time TempWeatherWind HumidityBarometerVisibility
1:30 PM
Apr 18
86 °FBroken clouds.9 mph75%29.89 "HgN/A
1:04 PM84 °FScattered clouds.12 mph79%29.89 "HgN/A
12:30 PM86 °FScattered clouds.10 mph70%29.92 "HgN/A
12:00 PM86 °FScattered clouds.10 mph70%29.92 "HgN/A
11:30 AM84 °FScattered showers. Scattered clouds.14 mph79%29.92 "HgN/A
11:00 AM88 °FScattered showers. Scattered clouds.12 mph70%29.95 "HgN/A
10:30 AM86 °FPassing clouds.9 mph75%29.95 "HgN/A
10:00 AM86 °FScattered showers. Passing clouds.10 mph70%29.95 "HgN/A
9:30 AM82 °FScattered showers. Scattered clouds.9 mph79%29.95 "HgN/A
9:00 AM84 °FScattered showers. Scattered clouds.9 mph74%29.95 "HgN/A
8:30 AM86 °FPassing clouds.9 mph70%29.95 "HgN/A
8:00 AM86 °FPassing clouds.12 mph66%29.95 "HgN/A
7:30 AM84 °FScattered clouds.10 mph70%29.95 "HgN/A
7:00 AM82 °FScattered clouds.12 mph79%29.92 "HgN/A
6:30 AM82 °FBroken clouds.12 mph79%29.92 "HgN/A
6:00 AM82 °FPartly cloudy.12 mph79%29.92 "HgN/A
5:30 AM82 °FPartly cloudy.12 mph79%29.92 "HgN/A
5:00 AM82 °FPartly cloudy.13 mph74%29.89 "HgN/A
4:30 AM82 °FPartly cloudy.10 mph79%29.89 "HgN/A
4:00 AM82 °FPassing clouds.10 mph79%29.89 "HgN/A
3:30 AM82 °FPassing clouds.10 mph74%29.86 "HgN/A
3:00 AM82 °FPartly cloudy.10 mph74%29.86 "HgN/A
2:30 AM82 °FOvercast.9 mph74%29.89 "HgN/A
2:00 AM82 °FWarm.10 mph70%29.89 "HgN/A
1:30 AM81 °FWarm.9 mph74%29.89 "HgN/A
1:00 AM81 °FWarm.9 mph79%29.92 "HgN/A
12:30 AM81 °FWarm.8 mph79%29.92 "HgN/A
12:00 AM81 °FWarm.8 mph84%29.92 "HgN/A
11:30 PM
Apr 17
81 °FPassing clouds.10 mph84%29.92 "HgN/A
11:00 PM82 °FMostly cloudy.8 mph79%29.92 "HgN/A
10:30 PM82 °FWarm.8 mph79%29.92 "HgN/A
10:00 PM82 °FWarm.7 mph84%29.92 "HgN/A
9:30 PM82 °FWarm.7 mph79%29.92 "HgN/A
9:00 PM82 °FWarm.6 mph84%29.95 "HgN/A
8:00 PM82 °FPartly cloudy.6 mph84%29.92 "HgN/A
7:30 PM84 °FPartly cloudy.7 mph74%29.89 "HgN/A
7:00 PM84 °FWarm.8 mph70%29.89 "HgN/A
6:30 PM84 °FWarm.7 mph74%29.89 "HgN/A
6:00 PM84 °FPartly cloudy.7 mph74%29.89 "HgN/A
5:30 PM84 °FBroken clouds.6 mph70%29.86 "HgN/A
5:00 PM84 °FBroken clouds.7 mph70%29.86 "HgN/A
4:30 PM84 °FBroken clouds.8 mph74%29.86 "HgN/A
4:00 PM84 °FBroken clouds.9 mph74%29.83 "HgN/A
3:34 PM84 °FBroken clouds.10 mph74%29.83 "HgN/A
3:00 PM86 °FBroken clouds.10 mph70%29.83 "HgN/A
2:30 PM86 °FPartly sunny.12 mph66%29.83 "HgN/A
2:00 PM86 °FPartly sunny.13 mph66%29.86 "HgN/A
Weather by CustomWeather, © 2014

See weather overview